| time (UTC) | temp F | wind direction | speed knots | gust knots | rain 1hr in | rain 24hr in | rain mn in | humidity % | barometer mb |
| 20260906065518 | 74 | 0.0 | 0.0 | 0.00 | 0.00 | 0.00 | 35 | 1013.8 | |
| 20260906065029 | 74 | 0.0 | 0.0 | 0.00 | 0.00 | 0.00 | 32 | 1015.8 | |
| 20260906064520 | 75 | 0.0 | 0.0 | 0.00 | 0.00 | 0.00 | 37 | 1013.9 | |
| 20260906064011 | 75 | 0.0 | 0.0 | 0.00 | 0.00 | 0.00 | 34 | 1014.9 | |
| 20260906063505 | 75 | 0.0 | 0.0 | 0.00 | 0.00 | 0.00 | 37 | 1014.4 | |
| 20260906063013 | 75 | 0.0 | 0.0 | 0.00 | 0.00 | 0.00 | 39 | 1012.3 | |
| 20260906062513 | 73 | 0.0 | 0.0 | 0.00 | 0.00 | 0.00 | 37 | 1013.7 | |
| 20260906062013 | 72 | 0.0 | 0.0 | 0.00 | 0.00 | 0.00 | 34 | 1012.2 | |
| 20260906061512 | 70 | 0.0 | 0.0 | 0.00 | 0.00 | 0.00 | 37 | 1015.4 | |
| 20260906061026 | 69 | 0.0 | 0.0 | 0.00 | 0.00 | 0.00 | 35 | 1015.7 | |
| 20260906060519 | 69 | 0.0 | 0.0 | 0.00 | 0.00 | 0.00 | 34 | 1015.4 | |
| 20260906060012 | 69 | 0.0 | 0.0 | 0.00 | 0.00 | 0.00 | 36 | 1015.6 | |
| 20260906055510 | 69 | 0.0 | 0.0 | 0.00 | 0.00 | 0.00 | 37 | 1015.8 | |
| 20260906055026 | 69 | 0.0 | 0.0 | 0.00 | 0.00 | 0.00 | 36 | 1015.8 | |
| 20260906054511 | 69 | 0.0 | 0.0 | 0.00 | 0.00 | 0.00 | 37 | 1015.7 | |
| 20260906054011 | 69 | 0.0 | 0.0 | 0.00 | 0.00 | 0.00 | 36 | 1015.4 | |
| 20260906053512 | 69 | 0.0 | 0.0 | 0.00 | 0.00 | 0.00 | 38 | 1015.4 | |
| 20260906053013 | 69 | 0.0 | 0.0 | 0.00 | 0.00 | 0.00 | 38 | 1015.7 | |
| 20260906052525 | 69 | 0.0 | 0.0 | 0.00 | 0.00 | 0.00 | 38 | 1015.6 | |
| 20260906052033 | 68 | 0.0 | 0.0 | 0.00 | 0.00 | 0.00 | 41 | 1015.4 | |
| 20260906051511 | 68 | 0.0 | 0.0 | 0.00 | 0.00 | 0.00 | 42 | 1015.4 | |
| 20260906051006 | 68 | 0.0 | 0.0 | 0.00 | 0.00 | 0.00 | 44 | 1015.3 | |
| 20260906050510 | 67 | 0.0 | 0.0 | 0.00 | 0.00 | 0.00 | 45 | 1016.1 | |
| 20260906050030 | 67 | 0.0 | 0.0 | 0.00 | 0.00 | 0.00 | 46 | 1015.9 | |
| 20260906045513 | 67 | 0.0 | 0.0 | 0.00 | 0.00 | 0.00 | 47 | 1015.9 | |
| 20260906045040 | 67 | 0.0 | 0.0 | 0.00 | 0.00 | 0.00 | 51 | 1016.0 | |
| 20260906044512 | 67 | 0.0 | 0.0 | 0.00 | 0.00 | 0.00 | 52 | 1016.0 | |
| 20260906044012 | 67 | 0.0 | 0.0 | 0.00 | 0.00 | 0.00 | 53 | 1016.0 | |
| 20260906043510 | 67 | 0.0 | 0.0 | 0.00 | 0.00 | 0.00 | 52 | 1016.1 | |
| 20260906043010 | 67 | 0.0 | 0.0 | 0.00 | 0.00 | 0.00 | 54 | 1016.1 | |
| 20260906042510 | 67 | 0.0 | 0.0 | 0.00 | 0.00 | 0.00 | 55 | 1016.0 | |
| 20260906042024 | 67 | 0.0 | 0.0 | 0.00 | 0.00 | 0.00 | 55 | 1016.0 | |
| 20260906041527 | 67 | 0.0 | 0.0 | 0.00 | 0.00 | 0.00 | 55 | 1016.1 | |
| 20260906041013 | 67 | 0.0 | 0.0 | 0.00 | 0.00 | 0.00 | 56 | 1016.1 | |
| 20260906040513 | 67 | 0.0 | 0.0 | 0.00 | 0.00 | 0.00 | 56 | 1016.1 | |
| 20260906040014 | 67 | 0.0 | 0.0 | 0.00 | 0.00 | 0.00 | 57 | 1016.1 | |
| 20260906035511 | 67 | 0.0 | 0.0 | 0.00 | 0.00 | 0.00 | 59 | 1016.0 | |
| 20260906035142 | 67 | 0.0 | 0.0 | 0.00 | 0.00 | 0.00 | 60 | 1016.0 | |
| 20260906034514 | 67 | 0.0 | 0.0 | 0.00 | 0.00 | 0.00 | 60 | 1016.1 | |
| 20260906034011 | 67 | 0.0 | 0.0 | 0.00 | 0.00 | 0.00 | 60 | 1016.0 | |
| 20260906033511 | 67 | 0.0 | 0.0 | 0.00 | 0.00 | 0.00 | 60 | 1015.9 | |
| 20260906033021 | 67 | 0.0 | 0.0 | 0.00 | 0.00 | 0.00 | 60 | 1015.8 | |
| 20260906032510 | 67 | 0.0 | 0.0 | 0.00 | 0.00 | 0.00 | 59 | 1015.9 | |
| 20260906032031 | 67 | 0.0 | 0.0 | 0.00 | 0.00 | 0.00 | 59 | 1015.8 | |
| 20260906031511 | 67 | 0.0 | 0.0 | 0.00 | 0.00 | 0.00 | 60 | 1015.9 | |
| 20260906031005 | 67 | 0.0 | 0.0 | 0.00 | 0.00 | 0.00 | 59 | 1015.9 | |
| 20260906030512 | 67 | 0.0 | 0.0 | 0.00 | 0.00 | 0.00 | 59 | 1015.9 | |
| 20260906030014 | 67 | 0.0 | 0.0 | 0.00 | 0.00 | 0.00 | 59 | 1015.9 | |
| 20260906025519 | 67 | 0.0 | 0.0 | 0.00 | 0.00 | 0.00 | 59 | 1015.9 | |
| 20260906025013 | 67 | 0.0 | 0.0 | 0.00 | 0.00 | 0.00 | 56 | 1016.0 | |
| 20260906024515 | 67 | 0.0 | 0.0 | 0.00 | 0.00 | 0.00 | 53 | 1016.0 | |
| 20260906024011 | 67 | 0.0 | 0.0 | 0.00 | 0.00 | 0.00 | 54 | 1016.0 | |
| 20260906023518 | 67 | 0.0 | 0.0 | 0.00 | 0.00 | 0.00 | 53 | 1016.0 | |
| 20260906022530 | 67 | 0.0 | 0.0 | 0.00 | 0.00 | 0.00 | 60 | 1016.0 | |
| 20260906022012 | 67 | 0.0 | 0.0 | 0.00 | 0.00 | 0.00 | 61 | 1016.0 | |
| 20260906021511 | 67 | 0.0 | 0.0 | 0.00 | 0.00 | 0.00 | 63 | 1016.1 | |
| 20260906020530 | 67 | 0.0 | 0.0 | 0.00 | 0.00 | 0.00 | 64 | 1016.0 | |
| 20260906020010 | 67 | 0.0 | 0.0 | 0.00 | 0.00 | 0.00 | 63 | 1016.1 | |
| 20260906015514 | 67 | 0.0 | 0.0 | 0.00 | 0.00 | 0.00 | 64 | 1016.2 | |
| 20260906015014 | 67 | 0.0 | 0.0 | 0.00 | 0.00 | 0.00 | 63 | 1016.1 | |
| 20260906014505 | 67 | 0.0 | 0.0 | 0.00 | 0.00 | 0.00 | 61 | 1016.2 | |
| 20260906014013 | 68 | 0.0 | 0.0 | 0.00 | 0.00 | 0.00 | 59 | 1016.1 | |
| 20260906013512 | 68 | 0.0 | 0.0 | 0.00 | 0.00 | 0.00 | 58 | 1015.8 | |
| 20260906013010 | 68 | 0.0 | 0.0 | 0.00 | 0.00 | 0.00 | 58 | 1015.9 | |
| 20260906012510 | 68 | 0.0 | 0.0 | 0.00 | 0.00 | 0.00 | 56 | 1015.7 | |
| 20260906012006 | 67 | 0.0 | 0.0 | 0.00 | 0.00 | 0.00 | 55 | 1016.0 | |
| 20260906011521 | 67 | 0.0 | 0.0 | 0.00 | 0.00 | 0.00 | 52 | 1016.0 | |
| 20260906011010 | 67 | 0.0 | 0.0 | 0.00 | 0.00 | 0.00 | 53 | 1015.5 | |
| 20260906005633 | 67 | 0.0 | 0.0 | 0.00 | 0.00 | 0.00 | 42 | 1016.2 | |
| 20260906005134 | 67 | 0.0 | 0.0 | 0.00 | 0.00 | 0.00 | 39 | 1016.0 | |
| 20260906004633 | 67 | 0.0 | 0.0 | 0.00 | 0.00 | 0.00 | 36 | 1016.0 | |
| 20260906004132 | 67 | 0.0 | 0.0 | 0.00 | 0.00 | 0.00 | 32 | 1016.4 | |
| 20260906003637 | 67 | 0.0 | 0.0 | 0.00 | 0.00 | 0.00 | 32 | 1016.5 | |
| 20260906003132 | 68 | 0.0 | 0.0 | 0.00 | 0.00 | 0.00 | 32 | 1016.0 | |
| 20260906002632 | 68 | 0.0 | 0.0 | 0.00 | 0.00 | 0.00 | 37 | 1015.6 | |
| 20260906002132 | 67 | 0.0 | 0.0 | 0.00 | 0.00 | 0.00 | 32 | 1015.7 | |
| 20260906001632 | 67 | 0.0 | 0.0 | 0.00 | 0.00 | 0.00 | 30 | 1016.2 | |
| 20260906001132 | 67 | 0.0 | 0.0 | 0.00 | 0.00 | 0.00 | 30 | 1016.1 | |
| 20260906000737 | 67 | 0.0 | 0.0 | 0.00 | 0.00 | 0.00 | 30 | 1016.1 | |
| 20260906000132 | 67 | 0.0 | 0.0 | 0.00 | 0.00 | 0.00 | 30 | 1016.0 | |
| 20260905235632 | 67 | 0.0 | 0.0 | 0.00 | 0.00 | 0.00 | 30 | 1016.1 | |
| 20260905235147 | 67 | 0.0 | 0.0 | 0.00 | 0.00 | 0.00 | 29 | 1016.1 | |
| 20260905234634 | 67 | 0.0 | 0.0 | 0.00 | 0.00 | 0.00 | 28 | 1016.2 | |
| 20260905234132 | 68 | 0.0 | 0.0 | 0.00 | 0.00 | 0.00 | 27 | 1016.3 | |
| 20260905233632 | 68 | 0.0 | 0.0 | 0.00 | 0.00 | 0.00 | 27 | 1016.4 | |
| 20260905233148 | 68 | 0.0 | 0.0 | 0.00 | 0.00 | 0.00 | 27 | 1015.4 | |
| 20260905232633 | 68 | 0.0 | 0.0 | 0.00 | 0.00 | 0.00 | 28 | 1016.2 | |
| 20260905232136 | 68 | 0.0 | 0.0 | 0.00 | 0.00 | 0.00 | 28 | 1016.1 | |
| 20260905231632 | 68 | 0.0 | 0.0 | 0.00 | 0.00 | 0.00 | 29 | 1016.2 | |
| 20260905231134 | 68 | 0.0 | 0.0 | 0.00 | 0.00 | 0.00 | 31 | 1016.2 | |
| 20260905230648 | 68 | 0.0 | 0.0 | 0.00 | 0.00 | 0.00 | 31 | 1016.2 | |
| 20260905225632 | 68 | 0.0 | 0.0 | 0.00 | 0.00 | 0.00 | 32 | 1016.1 | |
| 20260905225133 | 68 | 0.0 | 0.0 | 0.00 | 0.00 | 0.00 | 32 | 1016.3 | |
| 20260905224706 | 68 | 0.0 | 0.0 | 0.00 | 0.00 | 0.00 | 33 | 1016.3 | |
| 20260905224133 | 68 | 0.0 | 0.0 | 0.00 | 0.00 | 0.00 | 33 | 1016.2 | |
| 20260905223633 | 68 | 0.0 | 0.0 | 0.00 | 0.00 | 0.00 | 33 | 1016.1 | |
| 20260905223132 | 68 | 0.0 | 0.0 | 0.00 | 0.00 | 0.00 | 33 | 1016.2 | |
| 20260905222643 | 68 | 0.0 | 0.0 | 0.00 | 0.00 | 0.00 | 34 | 1016.3 | |
| 20260905222132 | 68 | 0.0 | 0.0 | 0.00 | 0.00 | 0.00 | 34 | 1016.1 | |
| 20260905221632 | 68 | 0.0 | 0.0 | 0.00 | 0.00 | 0.00 | 34 | 1016.2 | |
| 20260905221147 | 68 | 0.0 | 0.0 | 0.00 | 0.00 | 0.00 | 34 | 1016.1 | |
| 20260905220632 | 68 | 0.0 | 0.0 | 0.00 | 0.00 | 0.00 | 34 | 1016.0 | |
| 20260905220132 | 68 | 0.0 | 0.0 | 0.00 | 0.00 | 0.00 | 35 | 1016.1 | |
| 20260905215703 | 68 | 0.0 | 0.0 | 0.00 | 0.00 | 0.00 | 33 | 1016.0 | |
| 20260905215133 | 69 | 0.0 | 0.0 | 0.00 | 0.00 | 0.00 | 32 | 1015.9 | |
| 20260905214632 | 69 | 0.0 | 0.0 | 0.00 | 0.00 | 0.00 | 30 | 1015.9 | |
| 20260905214132 | 69 | 0.0 | 0.0 | 0.00 | 0.00 | 0.00 | 28 | 1015.9 | |
| 20260905213645 | 69 | 0.0 | 0.0 | 0.00 | 0.00 | 0.00 | 27 | 1015.9 | |
| 20260905213306 | 69 | 0.0 | 0.0 | 0.00 | 0.00 | 0.00 | 27 | 1015.7 | |
| 20260905212633 | 69 | 0.0 | 0.0 | 0.00 | 0.00 | 0.00 | 26 | 1015.8 | |
| 20260905212143 | 69 | 0.0 | 0.0 | 0.00 | 0.00 | 0.00 | 26 | 1015.9 | |
| 20260905211702 | 69 | 0.0 | 0.0 | 0.00 | 0.00 | 0.00 | 27 | 1015.8 | |
| 20260905211153 | 69 | 0.0 | 0.0 | 0.00 | 0.00 | 0.00 | 26 | 1015.8 | |
| 20260905210134 | 69 | 0.0 | 0.0 | 0.00 | 0.00 | 0.00 | 26 | 1015.8 | |
| 20260905205633 | 70 | 0.0 | 0.0 | 0.00 | 0.00 | 0.00 | 25 | 1015.7 | |
| 20260905205132 | 70 | 0.0 | 0.0 | 0.00 | 0.00 | 0.00 | 25 | 1015.7 | |
| 20260905204633 | 70 | 0.0 | 0.0 | 0.00 | 0.00 | 0.00 | 24 | 1015.7 | |
| 20260905204132 | 70 | 0.0 | 0.0 | 0.00 | 0.00 | 0.00 | 24 | 1015.7 | |
| 20260905203632 | 70 | 0.0 | 0.0 | 0.00 | 0.00 | 0.00 | 23 | 1015.7 | |
| 20260905203133 | 70 | 0.0 | 0.0 | 0.00 | 0.00 | 0.00 | 23 | 1015.7 | |
| 20260905202633 | 70 | 0.0 | 0.0 | 0.00 | 0.00 | 0.00 | 23 | 1015.6 | |
| 20260905202202 | 70 | 0.0 | 0.0 | 0.00 | 0.00 | 0.00 | 23 | 1015.7 | |
| 20260905201635 | 70 | 0.0 | 0.0 | 0.00 | 0.00 | 0.00 | 24 | 1015.5 | |
| 20260905201134 | 70 | 0.0 | 0.0 | 0.00 | 0.00 | 0.00 | 23 | 1015.7 | |
| 20260905200648 | 70 | 0.0 | 0.0 | 0.00 | 0.00 | 0.00 | 23 | 1015.5 | |
| 20260905200131 | 70 | 0.0 | 0.0 | 0.00 | 0.00 | 0.00 | 24 | 1015.6 | |
| 20260905195632 | 70 | 0.0 | 0.0 | 0.00 | 0.00 | 0.00 | 24 | 1015.7 | |
| 20260905195134 | 70 | 0.0 | 0.0 | 0.00 | 0.00 | 0.00 | 24 | 1015.7 | |
| 20260905194640 | 70 | 0.0 | 0.0 | 0.00 | 0.00 | 0.00 | 24 | 1015.6 | |
| 20260905194132 | 70 | 0.0 | 0.0 | 0.00 | 0.00 | 0.00 | 24 | 1015.6 | |
| 20260905193636 | 70 | 0.0 | 0.0 | 0.00 | 0.00 | 0.00 | 24 | 1015.6 | |
| 20260905193132 | 70 | 0.0 | 0.0 | 0.00 | 0.00 | 0.00 | 24 | 1015.6 | |
| 20260905192634 | 70 | 0.0 | 0.0 | 0.00 | 0.00 | 0.00 | 24 | 1015.5 | |
| 20260905192133 | 70 | 0.0 | 0.0 | 0.00 | 0.00 | 0.00 | 24 | 1015.6 | |
| 20260905191642 | 70 | 0.0 | 0.0 | 0.00 | 0.00 | 0.00 | 24 | 1015.6 | |
| 20260905191134 | 70 | 0.0 | 0.0 | 0.00 | 0.00 | 0.00 | 24 | 1015.4 | |
| 20260905190639 | 70 | 0.0 | 0.0 | 0.00 | 0.00 | 0.00 | 24 | 1015.3 | |
| 20260905190132 | 70 | 0.0 | 0.0 | 0.00 | 0.00 | 0.00 | 24 | 1015.2 | |
| 20260905185633 | 70 | 0.0 | 0.0 | 0.00 | 0.00 | 0.00 | 24 | 1015.3 | |
| 20260905185152 | 70 | 0.0 | 0.0 | 0.00 | 0.00 | 0.00 | 25 | 1015.3 | |
| 20260905184633 | 70 | 0.0 | 0.0 | 0.00 | 0.00 | 0.00 | 24 | 1015.2 | |
| 20260905184133 | 70 | 0.0 | 0.0 | 0.00 | 0.00 | 0.00 | 25 | 1015.4 | |
| 20260905183633 | 70 | 0.0 | 0.0 | 0.00 | 0.00 | 0.00 | 27 | 1015.2 | |
| 20260905183133 | 70 | 0.0 | 0.0 | 0.00 | 0.00 | 0.00 | 27 | 1015.3 | |
| 20260905182633 | 70 | 0.0 | 0.0 | 0.00 | 0.00 | 0.00 | 28 | 1015.2 | |
| 20260905182149 | 70 | 0.0 | 0.0 | 0.00 | 0.00 | 0.00 | 29 | 1015.0 | |
| 20260905181633 | 70 | 0.0 | 0.0 | 0.00 | 0.00 | 0.00 | 31 | 1015.2 | |
| 20260905181133 | 70 | 0.0 | 0.0 | 0.00 | 0.00 | 0.00 | 28 | 1015.2 | |
| 20260905180632 | 70 | 0.0 | 0.0 | 0.00 | 0.00 | 0.00 | 28 | 1015.0 | |
| 20260905180133 | 70 | 0.0 | 0.0 | 0.00 | 0.00 | 0.00 | 28 | 1014.8 | |
| 20260905175642 | 70 | 0.0 | 0.0 | 0.00 | 0.00 | 0.00 | 28 | 1014.9 | |
| 20260905175136 | 70 | 0.0 | 0.0 | 0.00 | 0.00 | 0.00 | 31 | 1015.0 | |
| 20260905174638 | 70 | 0.0 | 0.0 | 0.00 | 0.00 | 0.00 | 32 | 1015.1 | |
| 20260905174133 | 70 | 0.0 | 0.0 | 0.00 | 0.00 | 0.00 | 31 | 1014.9 | |
| 20260905173633 | 70 | 0.0 | 0.0 | 0.00 | 0.00 | 0.00 | 35 | 1015.1 | |
| 20260905173136 | 70 | 0.0 | 0.0 | 0.00 | 0.00 | 0.00 | 37 | 1015.1 | |
| 20260905172633 | 70 | 0.0 | 0.0 | 0.00 | 0.00 | 0.00 | 40 | 1015.3 | |
| 20260905172138 | 71 | 0.0 | 0.0 | 0.00 | 0.00 | 0.00 | 38 | 1014.6 | |
| 20260905172006 | 71 | 0.0 | 0.0 | 0.00 | 0.00 | 0.00 | 39 | 1014.5 | |
| 20260905171655 | 71 | 0.0 | 0.0 | 0.00 | 0.00 | 0.00 | 37 | 1014.7 | |
| 20260905170632 | 72 | 0.0 | 0.0 | 0.00 | 0.00 | 0.00 | 43 | 1014.5 | |
| 20260905170135 | 72 | 0.0 | 0.0 | 0.00 | 0.00 | 0.00 | 50 | 1014.8 | |
| 20260905165633 | 73 | 0.0 | 0.0 | 0.00 | 0.00 | 0.00 | 49 | 1014.1 | |
| 20260905165133 | 73 | 0.0 | 0.0 | 0.00 | 0.00 | 0.00 | 55 | 1014.2 | |
| 20260905164713 | 73 | 0.0 | 0.0 | 0.00 | 0.00 | 0.00 | 49 | 1013.9 | |
| 20260905164703 | 73 | 0.0 | 0.0 | 0.00 | 0.00 | 0.00 | 58 | 1014.3 | |
| 20260905163633 | 73 | 0.0 | 0.0 | 0.00 | 0.00 | 0.00 | 61 | 1014.4 | |
| 20260905163133 | 74 | 0.0 | 0.0 | 0.00 | 0.00 | 0.00 | 69 | 1013.8 | |
| 20260905162632 | 74 | 0.0 | 0.0 | 0.00 | 0.00 | 0.00 | 63 | 1013.9 | |
| 20260905162133 | 74 | 0.0 | 0.0 | 0.00 | 0.00 | 0.00 | 71 | 1014.0 | |
| 20260905161632 | 74 | 0.0 | 0.0 | 0.00 | 0.00 | 0.00 | 70 | 1014.1 | |
| 20260905161132 | 75 | 0.0 | 0.0 | 0.00 | 0.00 | 0.00 | 67 | 1013.1 | |
| 20260905160632 | 75 | 0.0 | 0.0 | 0.00 | 0.00 | 0.00 | 67 | 1014.0 | |
| 20260905160132 | 76 | 0.0 | 0.0 | 0.00 | 0.00 | 0.00 | 58 | 1013.5 | |
| 20260905155704 | 76 | 0.0 | 0.0 | 0.00 | 0.00 | 0.00 | 59 | 1013.6 | |
| 20260905155133 | 76 | 0.0 | 0.0 | 0.00 | 0.00 | 0.00 | 51 | 1013.2 | |
| 20260905154635 | 77 | 0.0 | 0.0 | 0.00 | 0.00 | 0.00 | 52 | 1013.3 | |
| 20260905154145 | 77 | 0.0 | 0.0 | 0.00 | 0.00 | 0.00 | 54 | 1013.3 | |
| 20260905153632 | 78 | 0.0 | 0.0 | 0.00 | 0.00 | 0.00 | 50 | 1013.4 | |
| 20260905153133 | 79 | 0.0 | 0.0 | 0.00 | 0.00 | 0.00 | 49 | 1012.5 | |
| 20260905152631 | 79 | 0.0 | 0.0 | 0.00 | 0.00 | 0.00 | 51 | 1013.0 | |
| 20260905152132 | 79 | 0.0 | 0.0 | 0.00 | 0.00 | 0.00 | 52 | 1013.1 | |
| 20260905151656 | 80 | 0.0 | 0.0 | 0.00 | 0.00 | 0.00 | 50 | 1011.6 | |
| 20260905151132 | 80 | 0.0 | 0.0 | 0.00 | 0.00 | 0.00 | 49 | 1012.6 | |
| 20260905150634 | 80 | 0.0 | 0.0 | 0.00 | 0.00 | 0.00 | 49 | 1012.0 | |
| 20260905150132 | 80 | 0.0 | 0.0 | 0.00 | 0.00 | 0.00 | 51 | 1012.3 | |
| 20260905145653 | 80 | 0.0 | 0.0 | 0.00 | 0.00 | 0.00 | 52 | 1012.0 | |
| 20260905145132 | 80 | 0.0 | 0.0 | 0.00 | 0.00 | 0.00 | 52 | 1012.4 | |
| 20260905144641 | 81 | 0.0 | 0.0 | 0.00 | 0.00 | 0.00 | 51 | 1012.2 | |
| 20260905144145 | 81 | 0.0 | 0.0 | 0.00 | 0.00 | 0.00 | 49 | 1011.6 | |
| 20260905143633 | 81 | 0.0 | 0.0 | 0.00 | 0.00 | 0.00 | 47 | 1012.6 | |
| 20260905143148 | 81 | 0.0 | 0.0 | 0.00 | 0.00 | 0.00 | 46 | 1012.0 | |
| 20260905142650 | 81 | 0.0 | 0.0 | 0.00 | 0.00 | 0.00 | 46 | 1012.2 | |
| 20260905141744 | 82 | 0.0 | 0.0 | 0.00 | 0.00 | 0.00 | 51 | 1011.5 | |
| 20260905141154 | 82 | 0.0 | 0.0 | 0.00 | 0.00 | 0.00 | 55 | 1011.7 | |
| 20260905140634 | 82 | 0.0 | 0.0 | 0.00 | 0.00 | 0.00 | 52 | 1012.2 | |
| 20260905140134 | 82 | 0.0 | 0.0 | 0.00 | 0.00 | 0.00 | 42 | 1012.1 | |
| 20260905135636 | 82 | 0.0 | 0.0 | 0.00 | 0.00 | 0.00 | 48 | 1012.4 | |
| 20260905135133 | 83 | 0.0 | 0.0 | 0.00 | 0.00 | 0.00 | 52 | 1011.0 | |
| 20260905134733 | 83 | 0.0 | 0.0 | 0.00 | 0.00 | 0.00 | 52 | 1012.0 | |
| 20260905134133 | 83 | 0.0 | 0.0 | 0.00 | 0.00 | 0.00 | 50 | 1011.2 | |
| 20260905133700 | 83 | 0.0 | 0.0 | 0.00 | 0.00 | 0.00 | 57 | 1011.1 | |
| 20260905133132 | 83 | 0.0 | 0.0 | 0.00 | 0.00 | 0.00 | 54 | 1013.0 | |
| 20260905132634 | 84 | 0.0 | 0.0 | 0.00 | 0.00 | 0.00 | 47 | 1011.3 | |
| 20260905132131 | 84 | 0.0 | 0.0 | 0.00 | 0.00 | 0.00 | 45 | 1010.9 | |
| 20260905131633 | 83 | 0.0 | 0.0 | 0.00 | 0.00 | 0.00 | 42 | 1012.4 | |
| 20260905131204 | 84 | 0.0 | 0.0 | 0.00 | 0.00 | 0.00 | 45 | 1011.4 | |
| 20260905130200 | 84 | 0.0 | 0.0 | 0.00 | 0.00 | 0.00 | 41 | 1011.7 | |
| 20260905125632 | 85 | 0.0 | 0.0 | 0.00 | 0.00 | 0.00 | 38 | 1010.8 | |
| 20260905125132 | 84 | 0.0 | 0.0 | 0.00 | 0.00 | 0.00 | 40 | 1011.0 | |
| 20260905124633 | 84 | 0.0 | 0.0 | 0.00 | 0.00 | 0.00 | 39 | 1012.2 | |
| 20260905124135 | 85 | 0.0 | 0.0 | 0.00 | 0.00 | 0.00 | 38 | 1011.2 | |
| 20260905123631 | 84 | 0.0 | 0.0 | 0.00 | 0.00 | 0.00 | 39 | 1012.2 | |
| 20260905123133 | 85 | 0.0 | 0.0 | 0.00 | 0.00 | 0.00 | 40 | 1011.7 | |
| 20260905122631 | 85 | 0.0 | 0.0 | 0.00 | 0.00 | 0.00 | 37 | 1012.6 | |
| 20260905122133 | 86 | 0.0 | 0.0 | 0.00 | 0.00 | 0.00 | 36 | 1010.9 | |
| 20260905121633 | 86 | 0.0 | 0.0 | 0.00 | 0.00 | 0.00 | 34 | 1011.2 | |
| 20260905121209 | 86 | 0.0 | 0.0 | 0.00 | 0.00 | 0.00 | 34 | 1011.4 | |
| 20260905120636 | 86 | 0.0 | 0.0 | 0.00 | 0.00 | 0.00 | 34 | 1013.0 | |
| 20260905120133 | 87 | 0.0 | 0.0 | 0.00 | 0.00 | 0.00 | 32 | 1011.2 | |
| 20260905115902 | 89 | 0.0 | 0.0 | 0.00 | 0.00 | 0.00 | 30 | 1010.7 | |
| 20260905115256 | 89 | 0.0 | 0.0 | 0.00 | 0.00 | 0.00 | 31 | 1010.0 | |
| 20260905113632 | 88 | 0.0 | 0.0 | 0.00 | 0.00 | 0.00 | 30 | 1010.3 | |
| 20260905113131 | 88 | 0.0 | 0.0 | 0.00 | 0.00 | 0.00 | 30 | 1011.7 | |
| 20260905111134 | 88 | 0.0 | 0.0 | 0.00 | 0.00 | 0.00 | 31 | 1009.6 | |
| 20260905110639 | 87 | 0.0 | 0.0 | 0.00 | 0.00 | 0.00 | 32 | 1011.1 | |
| 20260905110133 | 87 | 0.0 | 0.0 | 0.00 | 0.00 | 0.00 | 30 | 1012.4 | |
| 20260905105632 | 89 | 0.0 | 0.0 | 0.00 | 0.00 | 0.00 | 30 | 1009.2 | |
| 20260905105131 | 87 | 0.0 | 0.0 | 0.00 | 0.00 | 0.00 | 31 | 1012.1 | |
| 20260905104631 | 89 | 0.0 | 0.0 | 0.00 | 0.00 | 0.00 | 31 | 1010.2 | |
| 20260905102149 | 87 | 0.0 | 0.0 | 0.00 | 0.00 | 0.00 | 32 | 1012.6 | |
| 20260905101635 | 88 | 0.0 | 0.0 | 0.00 | 0.00 | 0.00 | 34 | 1010.8 | |
| 20260905101132 | 88 | 0.0 | 0.0 | 0.00 | 0.00 | 0.00 | 34 | 1011.7 | |
| 20260905100632 | 89 | 0.0 | 0.0 | 0.00 | 0.00 | 0.00 | 34 | 1010.5 | |
| 20260905100141 | 89 | 0.0 | 0.0 | 0.00 | 0.00 | 0.00 | 33 | 1010.2 | |
| 20260905095637 | 88 | 0.0 | 0.0 | 0.00 | 0.00 | 0.00 | 34 | 1010.7 | |
| 20260905095132 | 87 | 0.0 | 0.0 | 0.00 | 0.00 | 0.00 | 33 | 1011.2 | |
| 20260905094635 | 87 | 0.0 | 0.0 | 0.00 | 0.00 | 0.00 | 30 | 1010.1 | |
| 20260905094154 | 87 | 0.0 | 0.0 | 0.00 | 0.00 | 0.00 | 31 | 1011.6 | |
| 20260905093143 | 87 | 0.0 | 0.0 | 0.00 | 0.00 | 0.00 | 30 | 1011.5 | |
| 20260905092703 | 87 | 0.0 | 0.0 | 0.00 | 0.00 | 0.00 | 30 | 1011.1 | |
| 20260905092137 | 87 | 0.0 | 0.0 | 0.00 | 0.00 | 0.00 | 30 | 1011.6 | |
| 20260905091632 | 87 | 0.0 | 0.0 | 0.00 | 0.00 | 0.00 | 30 | 1010.9 | |
| 20260905091136 | 87 | 0.0 | 0.0 | 0.00 | 0.00 | 0.00 | 29 | 1011.0 | |
| 20260905090640 | 87 | 0.0 | 0.0 | 0.00 | 0.00 | 0.00 | 28 | 1010.1 | |
| 20260905090138 | 86 | 0.0 | 0.0 | 0.00 | 0.00 | 0.00 | 30 | 1012.4 | |
| 20260905085729 | 86 | 0.0 | 0.0 | 0.00 | 0.00 | 0.00 | 29 | 1011.4 | |
| 20260905085641 | 87 | 0.0 | 0.0 | 0.00 | 0.00 | 0.00 | 28 | 1010.9 | |
| 20260905085134 | 87 | 0.0 | 0.0 | 0.00 | 0.00 | 0.00 | 28 | 1010.6 | |
| 20260905083221 | 86 | 0.0 | 0.0 | 0.00 | 0.00 | 0.00 | 30 | 1010.4 | |
| 20260905081702 | 85 | 0.0 | 0.0 | 0.00 | 0.00 | 0.00 | 31 | 1010.8 | |
| 20260905081131 | 84 | 0.0 | 0.0 | 0.00 | 0.00 | 0.00 | 32 | 1010.6 | |
| 20260905075224 | 81 | 0.0 | 0.0 | 0.00 | 0.00 | 0.00 | 36 | 1010.3 | |
| 20260905074144 | 79 | 0.0 | 0.0 | 0.00 | 0.00 | 0.00 | 39 | 1011.7 | |
| 20260905073632 | 78 | 0.0 | 0.0 | 0.00 | 0.00 | 0.00 | 40 | 1011.5 | |
| 20260905073151 | 76 | 0.0 | 0.0 | 0.00 | 0.00 | 0.00 | 43 | 1012.9 | |
| 20260905070211 | 72 | 0.0 | 0.0 | 0.00 | 0.00 | 0.00 | 42 | 1015.4 | |
| 20260905065651 | 73 | 0.0 | 0.0 | 0.00 | 0.00 | 0.00 | 42 | 1013.6 |